Orbital Elements
Epoch 2003 Feb. 10.0 TT = JDT 2452680.5
T 2003 Feb. 15.37660 TT MPC
q 1.2299740 (2000.0) P Q
n 0.18684136 Peri. 253.07283 -0.93234447 +0.35937328
a 3.0303122 Node 307.97090 -0.30954477 -0.85023413
e 0.5941098 Incl. 2.89447 -0.18685778 -0.38464630
P 5.28
>From 52 observations 1982 Feb. 5 (component A)-2003 Mar. 5, mean residual
0".89. Nongravitational parameters A1 = +0.30 +/- 0.06, A2 = +0.0113
+/- 0.0003.
|